Time,TemperatureF,DewpointF,PressureIn,WindDirection,WindDirectionDegrees,WindSpeedMPH,WindSpeedGustMPH,Humidity,HourlyPrecipIn,Conditions,Clouds,dailyrainin,SoftwareType,DateUTC
2013-03-04 00:03:00,49.2,44.6,30.01,SSW,203,0.0,0.0,85,0.00,,,0.00,WSDL version 423,2013-03-04 08:03:00,
2013-03-04 00:08:00,49.1,45.0,30.02,SSW,203,0.0,0.0,86,0.00,,,0.00,WSDL version 423,2013-03-04 08:08:00,
2013-03-04 00:13:00,49.0,45.0,30.01,SSW,203,0.0,0.0,87,0.00,,,0.00,WSDL version 423,2013-03-04 08:13:00,
2013-03-04 00:18:00,48.8,45.1,30.02,SSW,203,0.0,0.0,87,0.00,,,0.00,WSDL version 423,2013-03-04 08:18:00,
2013-03-04 00:23:00,48.7,45.1,30.02,SSW,203,0.0,0.0,88,0.00,,,0.00,WSDL version 423,2013-03-04 08:23:00,
2013-03-04 00:28:00,-999.0,-99.9,30.02,SSW,203,0.0,0.0,-999,0.00,,,0.00,WSDL version 423,2013-03-04 08:28:00,
2013-03-04 00:33:00,48.6,44.9,30.02,SSW,203,0.0,0.0,87,0.00,,,0.00,WSDL version 423,2013-03-04 08:33:00,
2013-03-04 00:38:00,48.4,44.6,30.02,SSW,203,0.0,0.0,87,0.00,,,0.00,WSDL version 423,2013-03-04 08:38:00,
2013-03-04 00:43:00,48.4,44.9,30.02,SSW,203,0.0,0.0,88,0.00,,,0.00,WSDL version 423,2013-03-04 08:43:00,
2013-03-04 00:48:00,48.2,44.4,30.02,SSW,203,0.0,0.0,87,0.00,,,0.00,WSDL version 423,2013-03-04 08:48:00,
2013-03-04 00:53:00,47.9,44.2,30.03,SSW,203,0.0,0.0,87,0.00,,,0.00,WSDL version 423,2013-03-04 08:53:00,
2013-03-04 00:58:00,47.8,44.1,30.03,SSW,203,0.0,0.0,88,0.00,,,0.00,WSDL version 423,2013-03-04 08:58:00,
2013-03-04 01:03:00,47.8,44.4,30.03,SSW,203,0.0,0.0,88,0.00,,,0.00,WSDL version 423,2013-03-04 09:03:00,
2013-03-04 01:08:00,47.6,44.2,30.03,SSW,203,0.0,0.0,88,0.00,,,0.00,WSDL version 423,2013-03-04 09:08:00,
2013-03-04 01:13:00,-999.0,-99.9,30.03,SSW,203,0.0,0.0,-999,0.00,,,0.00,WSDL version 423,2013-03-04 09:13:00,
2013-03-04 01:18:00,47.1,43.5,30.03,SSW,203,0.0,0.0,87,0.00,,,0.00,WSDL version 423,2013-03-04 09:18:00,
2013-03-04 01:23:00,46.9,43.1,30.03,SSW,203,0.0,0.0,87,0.00,,,0.00,WSDL version 423,2013-03-04 09:23:00,
2013-03-04 01:28:00,46.8,43.0,30.03,SSW,203,0.0,0.0,87,0.00,,,0.00,WSDL version 423,2013-03-04 09:28:00,
2013-03-04 01:33:00,46.8,43.0,30.03,SSW,203,0.0,0.0,87,0.00,,,0.00,WSDL version 423,2013-03-04 09:33:00,
2013-03-04 01:38:00,46.7,42.9,30.03,SSW,203,0.0,0.0,87,0.00,,,0.00,WSDL version 423,2013-03-04 09:38:00,
2013-03-04 01:43:00,46.3,42.6,30.03,SSW,203,0.0,0.0,87,0.00,,,0.00,WSDL version 423,2013-03-04 09:43:00,
2013-03-04 01:48:00,46.2,42.8,30.03,SSW,203,0.0,0.0,88,0.00,,,0.00,WSDL version 423,2013-03-04 09:48:00,
2013-03-04 01:53:00,46.2,42.8,30.03,SSW,203,0.0,0.0,88,0.00,,,0.00,WSDL version 423,2013-03-04 09:53:00,
2013-03-04 01:58:00,46.0,42.6,30.03,SSW,203,0.0,0.0,88,0.00,,,0.00,WSDL version 423,2013-03-04 09:58:00,
2013-03-04 02:03:00,45.9,42.7,30.03,SSW,203,0.0,0.0,89,0.00,,,0.00,WSDL version 423,2013-03-04 10:03:00,
2013-03-04 02:08:00,45.7,42.6,30.03,SSW,203,0.0,0.0,89,0.00,,,0.00,WSDL version 423,2013-03-04 10:08:00,
2013-03-04 02:13:00,45.4,42.0,30.02,SSW,203,0.0,0.0,88,0.00,,,0.00,WSDL version 423,2013-03-04 10:13:00,
2013-03-04 02:18:00,45.3,42.1,30.02,SSW,203,0.0,0.0,89,0.00,,,0.00,WSDL version 423,2013-03-04 10:18:00,
2013-03-04 02:23:00,45.3,42.2,30.02,SSW,203,0.0,0.0,89,0.00,,,0.00,WSDL version 423,2013-03-04 10:23:00,
2013-03-04 02:28:00,45.2,42.2,30.02,SSW,203,0.0,0.0,89,0.00,,,0.00,WSDL version 423,2013-03-04 10:28:00,
2013-03-04 02:33:00,45.1,42.1,30.02,SSW,203,0.0,0.0,89,0.00,,,0.00,WSDL version 423,2013-03-04 10:33:00,
2013-03-04 02:38:00,44.9,41.8,30.02,SSW,203,0.0,0.0,89,0.00,,,0.00,WSDL version 423,2013-03-04 10:38:00,
2013-03-04 02:43:00,44.8,41.6,30.02,SSW,203,0.0,0.0,89,0.00,,,0.00,WSDL version 423,2013-03-04 10:43:00,
2013-03-04 02:48:00,44.8,41.7,30.02,SSW,203,0.0,0.0,89,0.00,,,0.00,WSDL version 423,2013-03-04 10:48:00,
2013-03-04 02:53:00,44.7,41.6,30.02,SSW,203,0.0,0.0,89,0.00,,,0.00,WSDL version 423,2013-03-04 10:53:00,
2013-03-04 02:58:00,44.8,42.0,30.02,SSW,203,0.0,0.0,90,0.00,,,0.00,WSDL version 423,2013-03-04 10:58:00,
2013-03-04 03:03:00,44.8,42.0,30.02,SSW,203,0.0,0.0,90,0.00,,,0.00,WSDL version 423,2013-03-04 11:03:00,
2013-03-04 03:08:00,44.8,42.0,30.02,SSW,203,0.0,0.0,90,0.00,,,0.00,WSDL version 423,2013-03-04 11:08:00,
2013-03-04 03:13:00,44.6,41.9,30.02,SSW,203,0.0,0.0,90,0.00,,,0.00,WSDL version 423,2013-03-04 11:13:00,
2013-03-04 03:18:00,44.2,41.7,30.02,SSW,203,0.0,0.0,90,0.00,,,0.00,WSDL version 423,2013-03-04 11:18:00,
2013-03-04 03:23:00,43.8,41.1,30.02,SSW,203,0.0,0.0,90,0.00,,,0.00,WSDL version 423,2013-03-04 11:23:00,
2013-03-04 03:28:00,43.7,41.0,30.02,SSW,203,0.0,0.0,91,0.00,,,0.00,WSDL version 423,2013-03-04 11:28:00,
2013-03-04 03:33:00,43.6,41.1,30.03,SSW,203,0.0,0.0,91,0.00,,,0.00,WSDL version 423,2013-03-04 11:33:00,
2013-03-04 03:38:00,43.4,41.0,30.03,SSW,203,0.0,0.0,91,0.00,,,0.00,WSDL version 423,2013-03-04 11:38:00,
2013-03-04 03:43:00,43.3,40.7,30.03,SSW,203,0.0,0.0,91,0.00,,,0.00,WSDL version 423,2013-03-04 11:43:00,
2013-03-04 03:48:00,43.1,40.7,30.03,SSW,203,0.0,0.0,91,0.00,,,0.00,WSDL version 423,2013-03-04 11:48:00,
2013-03-04 03:53:00,42.9,40.5,30.03,SSW,203,0.0,0.0,91,0.00,,,0.00,WSDL version 423,2013-03-04 11:53:00,
2013-03-04 03:58:00,42.8,40.4,30.03,SSW,203,0.0,0.0,91,0.00,,,0.00,WSDL version 423,2013-03-04 11:58:00,
2013-03-04 04:03:00,42.8,40.6,30.02,SSW,203,0.0,0.0,92,0.00,,,0.00,WSDL version 423,2013-03-04 12:03:00,
2013-03-04 04:08:00,42.8,40.7,30.02,SSW,203,0.0,0.0,92,0.00,,,0.00,WSDL version 423,2013-03-04 12:08:00,
2013-03-04 04:13:00,42.7,40.7,30.03,SSW,203,0.0,0.0,93,0.00,,,0.00,WSDL version 423,2013-03-04 12:13:00,
2013-03-04 04:18:00,42.6,40.8,30.02,SSW,203,0.0,0.0,93,0.00,,,0.00,WSDL version 423,2013-03-04 12:18:00,
2013-03-04 04:23:00,-999.0,-99.9,30.03,SSW,203,0.0,0.0,-999,0.00,,,0.00,WSDL version 423,2013-03-04 12:23:00,
2013-03-04 04:33:00,42.4,40.6,30.03,SSW,203,0.0,0.0,93,0.00,,,0.00,WSDL version 423,2013-03-04 12:33:00,
2013-03-04 04:38:00,42.3,40.7,30.03,SSW,203,0.0,0.0,93,0.00,,,0.00,WSDL version 423,2013-03-04 12:38:00,
2013-03-04 04:43:00,42.2,40.4,30.03,SSW,203,0.0,0.0,93,0.00,,,0.00,WSDL version 423,2013-03-04 12:43:00,
2013-03-04 04:48:00,42.1,40.3,30.03,SSW,203,0.0,0.0,93,0.00,,,0.00,WSDL version 423,2013-03-04 12:48:00,
2013-03-04 04:53:00,42.3,40.5,30.03,SSW,203,0.0,0.0,93,0.00,,,0.00,WSDL version 423,2013-03-04 12:53:00,
2013-03-04 05:03:00,42.1,40.6,30.03,SSW,203,0.0,0.0,94,0.00,,,0.00,WSDL version 423,2013-03-04 13:03:00,
2013-03-04 05:08:00,42.3,40.8,30.03,SSW,203,0.0,0.0,94,0.00,,,0.00,WSDL version 423,2013-03-04 13:08:00,
2013-03-04 05:13:00,42.4,40.9,30.03,SSW,203,0.0,0.0,94,0.00,,,0.00,WSDL version 423,2013-03-04 13:13:00,
2013-03-04 05:18:00,42.3,40.9,30.03,SSW,203,0.0,0.0,96,0.00,,,0.00,WSDL version 423,2013-03-04 13:18:00,
2013-03-04 05:23:00,42.3,40.8,30.04,SSW,203,0.0,0.0,94,0.00,,,0.00,WSDL version 423,2013-03-04 13:23:00,
2013-03-04 05:28:00,42.2,40.7,30.04,SSW,203,0.0,0.0,94,0.00,,,0.00,WSDL version 423,2013-03-04 13:28:00,
2013-03-04 05:33:00,42.1,40.6,30.04,SSW,203,0.0,0.0,94,0.00,,,0.00,WSDL version 423,2013-03-04 13:33:00,
2013-03-04 05:38:00,-999.0,-99.9,30.04,SSW,203,0.0,0.0,-999,0.00,,,0.00,WSDL version 423,2013-03-04 13:38:00,
2013-03-04 05:43:00,42.1,40.9,30.04,SSW,203,0.0,0.0,96,0.00,,,0.00,WSDL version 423,2013-03-04 13:43:00,
2013-03-04 05:48:00,42.1,40.9,30.04,SSW,203,0.0,0.0,96,0.00,,,0.00,WSDL version 423,2013-03-04 13:48:00,
2013-03-04 05:53:00,41.9,40.7,30.04,SSW,203,0.0,0.0,96,0.00,,,0.00,WSDL version 423,2013-03-04 13:53:00,
2013-03-04 05:58:00,41.8,40.6,30.04,SSW,203,0.0,0.0,96,0.00,,,0.00,WSDL version 423,2013-03-04 13:58:00,
2013-03-04 06:03:00,41.9,40.7,30.04,SSW,203,0.0,0.0,96,0.00,,,0.00,WSDL version 423,2013-03-04 14:03:00,
2013-03-04 06:08:00,42.0,40.8,30.04,SSW,203,0.0,0.0,96,0.00,,,0.00,WSDL version 423,2013-03-04 14:08:00,
2013-03-04 06:13:00,41.8,40.7,30.05,SSW,203,0.0,0.0,96,0.00,,,0.00,WSDL version 423,2013-03-04 14:13:00,
2013-03-04 06:18:00,42.0,41.0,30.05,SSW,203,0.0,0.0,97,0.00,,,0.00,WSDL version 423,2013-03-04 14:18:00,
2013-03-04 06:23:00,42.0,41.1,30.05,SSW,203,0.0,0.0,97,0.00,,,0.00,WSDL version 423,2013-03-04 14:23:00,
2013-03-04 06:28:00,42.1,41.2,30.05,SSW,203,0.0,0.0,97,0.00,,,0.00,WSDL version 423,2013-03-04 14:28:00,
2013-03-04 06:33:00,41.9,41.1,30.06,SSW,203,0.0,0.0,97,0.00,,,0.00,WSDL version 423,2013-03-04 14:33:00,
2013-03-04 06:38:00,41.9,41.1,30.06,SSW,203,0.0,0.0,97,0.00,,,0.00,WSDL version 423,2013-03-04 14:38:00,
2013-03-04 06:43:00,42.1,41.2,30.06,SSW,203,0.0,0.0,97,0.00,,,0.00,WSDL version 423,2013-03-04 14:43:00,
2013-03-04 06:48:00,42.2,41.4,30.06,SSW,203,0.0,0.0,97,0.00,,,0.00,WSDL version 423,2013-03-04 14:48:00,
2013-03-04 06:53:00,42.5,41.6,30.06,SSW,203,0.0,0.0,97,0.00,,,0.00,WSDL version 423,2013-03-04 14:53:00,
2013-03-04 06:58:00,42.7,41.8,30.06,SSW,203,0.0,0.0,97,0.00,,,0.00,WSDL version 423,2013-03-04 14:58:00,
2013-03-04 07:03:00,42.9,42.0,30.06,SSW,203,0.0,0.0,97,0.00,,,0.00,WSDL version 423,2013-03-04 15:03:00,
2013-03-04 07:08:00,43.2,42.3,30.06,SSW,203,0.0,0.0,97,0.00,,,0.00,WSDL version 423,2013-03-04 15:08:00,
2013-03-04 07:13:00,43.5,42.6,30.06,SSW,203,0.0,0.0,97,0.00,,,0.00,WSDL version 423,2013-03-04 15:13:00,
2013-03-04 07:18:00,43.8,43.2,30.06,SSW,203,0.0,0.0,98,0.00,,,0.00,WSDL version 423,2013-03-04 15:18:00,
2013-03-04 07:23:00,44.3,43.7,30.06,SSW,203,0.0,0.0,98,0.00,,,0.00,WSDL version 423,2013-03-04 15:23:00,
2013-03-04 07:28:00,44.8,44.2,30.06,SSW,203,0.0,0.0,98,0.00,,,0.00,WSDL version 423,2013-03-04 15:28:00,
2013-03-04 07:33:00,45.2,44.8,30.06,SSW,203,0.0,0.0,99,0.00,,,0.00,WSDL version 423,2013-03-04 15:33:00,
2013-03-04 07:38:00,45.7,45.6,30.06,SSW,203,0.0,0.0,100,0.00,,,0.00,WSDL version 423,2013-03-04 15:38:00,
2013-03-04 07:43:00,46.3,46.3,30.06,SSW,203,0.0,0.0,100,0.00,,,0.00,WSDL version 423,2013-03-04 15:43:00,
2013-03-04 07:48:00,46.6,46.6,30.07,SSW,203,0.0,0.0,100,0.00,,,0.00,WSDL version 423,2013-03-04 15:48:00,
2013-03-04 07:53:00,-999.0,-99.9,30.07,SSW,203,0.0,0.0,-999,0.00,,,0.00,WSDL version 423,2013-03-04 15:53:00,
2013-03-04 07:58:00,47.2,47.2,30.07,SSW,203,0.0,0.0,100,0.00,,,0.00,WSDL version 423,2013-03-04 15:58:00,
2013-03-04 08:03:00,47.4,47.4,30.07,SSW,203,0.0,0.0,100,0.00,,,0.00,WSDL version 423,2013-03-04 16:03:00,
2013-03-04 08:08:00,47.5,47.2,30.08,SSW,203,0.0,0.0,99,0.00,,,0.00,WSDL version 423,2013-03-04 16:08:00,
2013-03-04 08:13:00,47.6,47.3,30.08,SSW,203,0.0,0.0,99,0.00,,,0.00,WSDL version 423,2013-03-04 16:13:00,
2013-03-04 08:18:00,47.6,47.0,30.08,SSW,203,0.0,0.0,98,0.00,,,0.00,WSDL version 423,2013-03-04 16:18:00,
2013-03-04 08:23:00,47.8,47.2,30.08,SSW,203,0.0,0.0,98,0.00,,,0.00,WSDL version 423,2013-03-04 16:23:00,
2013-03-04 08:28:00,47.8,47.2,30.08,SSW,203,0.0,0.0,98,0.00,,,0.00,WSDL version 423,2013-03-04 16:28:00,
2013-03-04 08:33:00,47.8,47.2,30.08,SSW,203,0.0,0.0,98,0.00,,,0.00,WSDL version 423,2013-03-04 16:33:00,
2013-03-04 08:38:00,47.8,46.9,30.08,SSW,203,0.0,0.0,97,0.00,,,0.00,WSDL version 423,2013-03-04 16:38:00,
2013-03-04 08:43:00,47.9,46.8,30.08,SSW,203,0.0,0.0,96,0.00,,,0.00,WSDL version 423,2013-03-04 16:43:00,
2013-03-04 08:48:00,48.2,46.8,30.08,SSW,203,0.0,0.0,94,0.00,,,0.00,WSDL version 423,2013-03-04 16:48:00,
2013-03-04 08:53:00,48.3,46.7,30.09,SSW,203,0.0,0.0,93,0.00,,,0.00,WSDL version 423,2013-03-04 16:53:00,
2013-03-04 08:58:00,48.7,47.1,30.09,SSW,203,0.0,0.0,93,0.00,,,0.00,WSDL version 423,2013-03-04 16:58:00,
2013-03-04 09:03:00,49.0,47.2,30.09,SSW,203,0.0,0.0,93,0.00,,,0.00,WSDL version 423,2013-03-04 17:03:00,
2013-03-04 09:08:00,49.2,47.0,30.09,SSW,203,0.0,0.0,92,0.00,,,0.00,WSDL version 423,2013-03-04 17:08:00,
2013-03-04 09:13:00,49.3,46.9,30.09,SSW,203,0.0,0.0,91,0.00,,,0.00,WSDL version 423,2013-03-04 17:13:00,
2013-03-04 09:18:00,49.7,47.2,30.09,SSW,203,0.0,0.0,91,0.00,,,0.00,WSDL version 423,2013-03-04 17:18:00,
2013-03-04 09:23:00,50.4,47.6,30.09,SSW,203,0.0,0.0,90,0.00,,,0.00,WSDL version 423,2013-03-04 17:23:00,
2013-03-04 09:28:00,50.6,47.6,30.09,SSW,203,0.0,0.0,89,0.00,,,0.00,WSDL version 423,2013-03-04 17:28:00,
2013-03-04 09:33:00,51.7,47.8,30.09,SSW,203,0.0,0.0,82,0.00,,,0.00,WSDL version 423,2013-03-04 17:33:00,
2013-03-04 09:38:00,52.0,46.3,30.09,SSW,203,0.0,0.0,81,0.00,,,0.00,WSDL version 423,2013-03-04 17:38:00,
2013-03-04 09:43:00,52.4,46.8,30.09,SSW,203,0.0,0.0,81,0.00,,,0.00,WSDL version 423,2013-03-04 17:43:00,
2013-03-04 09:48:00,53.4,47.8,30.09,SSW,203,0.0,0.0,80,0.00,,,0.00,WSDL version 423,2013-03-04 17:48:00,
2013-03-04 09:53:00,54.4,48.1,30.08,SSW,203,0.0,0.0,77,0.00,,,0.00,WSDL version 423,2013-03-04 17:53:00,
2013-03-04 09:58:00,55.2,47.7,30.08,SSW,203,0.0,0.0,76,0.00,,,0.00,WSDL version 423,2013-03-04 17:58:00,
2013-03-04 10:03:00,55.9,47.8,30.08,SSW,203,0.0,0.0,72,0.00,,,0.00,WSDL version 423,2013-03-04 18:03:00,
2013-03-04 10:08:00,56.0,47.1,30.08,SSW,203,0.0,0.0,72,0.00,,,0.00,WSDL version 423,2013-03-04 18:08:00,
2013-03-04 10:18:00,56.3,46.7,30.08,SSW,203,0.0,0.0,70,0.00,,,0.00,WSDL version 423,2013-03-04 18:18:00,
2013-03-04 10:23:00,56.3,46.7,30.08,SSW,203,0.0,0.0,70,0.00,,,0.00,WSDL version 423,2013-03-04 18:23:00,
2013-03-04 10:28:00,56.5,46.8,30.08,SSW,203,0.0,0.0,69,0.00,,,0.00,WSDL version 423,2013-03-04 18:28:00,
2013-03-04 10:33:00,56.5,46.4,30.08,SSW,203,0.0,0.0,69,0.00,,,0.00,WSDL version 423,2013-03-04 18:33:00,
2013-03-04 10:38:00,57.1,46.9,30.08,SSW,203,0.0,0.0,68,0.00,,,0.00,WSDL version 423,2013-03-04 18:38:00,
2013-03-04 10:43:00,57.4,47.0,30.08,SSW,203,0.0,0.0,68,0.00,,,0.00,WSDL version 423,2013-03-04 18:43:00,
2013-03-04 10:48:00,57.8,46.8,30.08,SSW,203,0.0,0.0,67,0.00,,,0.00,WSDL version 423,2013-03-04 18:48:00,
2013-03-04 10:53:00,58.0,46.4,30.08,SSW,203,0.0,0.0,66,0.00,,,0.00,WSDL version 423,2013-03-04 18:53:00,
2013-03-04 10:58:00,58.2,47.0,30.08,SSW,203,0.0,0.0,67,0.00,,,0.00,WSDL version 423,2013-03-04 18:58:00,
2013-03-04 11:03:00,58.6,47.6,30.08,SSW,203,0.0,0.0,66,0.00,,,0.00,WSDL version 423,2013-03-04 19:03:00,
2013-03-04 11:08:00,58.9,47.0,30.08,SSW,203,0.0,0.0,64,0.00,,,0.00,WSDL version 423,2013-03-04 19:08:00,
2013-03-04 11:13:00,58.9,46.5,30.07,SSW,203,0.0,0.0,62,0.00,,,0.00,WSDL version 423,2013-03-04 19:13:00,
2013-03-04 11:18:00,59.1,46.5,30.07,SSW,203,0.0,0.0,63,0.00,,,0.00,WSDL version 423,2013-03-04 19:18:00,
2013-03-04 11:23:00,59.3,46.5,30.07,SSW,203,0.0,0.0,62,0.00,,,0.00,WSDL version 423,2013-03-04 19:23:00,
2013-03-04 11:28:00,59.5,45.9,30.07,SSW,203,0.0,0.0,60,0.00,,,0.00,WSDL version 423,2013-03-04 19:28:00,
2013-03-04 11:33:00,59.7,45.8,30.07,SSW,203,0.0,0.0,59,0.00,,,0.00,WSDL version 423,2013-03-04 19:33:00,
2013-03-04 11:38:00,60.4,46.6,30.07,SSW,203,0.0,0.0,60,0.00,,,0.00,WSDL version 423,2013-03-04 19:38:00,
2013-03-04 11:43:00,60.5,46.5,30.07,SSW,203,0.0,0.0,59,0.00,,,0.00,WSDL version 423,2013-03-04 19:43:00,
2013-03-04 11:48:00,60.8,46.6,30.07,SSW,203,0.0,0.0,60,0.00,,,0.00,WSDL version 423,2013-03-04 19:48:00,
2013-03-04 11:53:00,60.7,45.9,30.07,SSW,203,0.0,0.0,58,0.00,,,0.00,WSDL version 423,2013-03-04 19:53:00,
2013-03-04 11:58:00,60.9,45.7,30.07,SSW,203,0.0,0.0,58,0.00,,,0.00,WSDL version 423,2013-03-04 19:58:00,
2013-03-04 12:03:00,61.6,47.3,30.07,SSW,203,0.0,0.0,59,0.00,,,0.00,WSDL version 423,2013-03-04 20:03:00,
2013-03-04 12:08:00,61.5,46.8,30.07,SSW,203,0.0,0.0,57,0.00,,,0.00,WSDL version 423,2013-03-04 20:08:00,
2013-03-04 12:13:00,61.6,46.7,30.06,SSW,203,0.0,0.0,57,0.00,,,0.00,WSDL version 423,2013-03-04 20:13:00,
2013-03-04 12:18:00,61.3,45.2,30.06,SSW,203,0.0,0.0,55,0.00,,,0.00,WSDL version 423,2013-03-04 20:18:00,
2013-03-04 12:23:00,61.0,45.1,30.06,SSW,203,0.0,0.0,56,0.00,,,0.00,WSDL version 423,2013-03-04 20:23:00,
2013-03-04 12:28:00,61.7,45.9,30.06,SSW,203,0.0,0.0,56,0.00,,,0.00,WSDL version 423,2013-03-04 20:28:00,
2013-03-04 12:33:00,61.6,45.3,30.05,SSW,203,0.0,0.0,57,0.00,,,0.00,WSDL version 423,2013-03-04 20:33:00,
2013-03-04 12:38:00,62.1,46.8,30.05,SSW,203,0.0,0.0,57,0.00,,,0.00,WSDL version 423,2013-03-04 20:38:00,
2013-03-04 12:43:00,62.1,46.7,30.05,SSW,203,0.0,0.0,57,0.00,,,0.00,WSDL version 423,2013-03-04 20:43:00,
2013-03-04 12:48:00,62.2,47.3,30.05,SSW,203,0.0,0.0,58,0.00,,,0.00,WSDL version 423,2013-03-04 20:48:00,
2013-03-04 12:53:00,62.2,47.1,30.05,SSW,203,0.0,0.0,58,0.00,,,0.00,WSDL version 423,2013-03-04 20:53:00,
2013-03-04 12:58:00,61.9,47.0,30.05,SSW,203,0.0,0.0,58,0.00,,,0.00,WSDL version 423,2013-03-04 20:58:00,
2013-03-04 13:03:00,62.3,47.1,30.04,SSW,203,0.0,0.0,56,0.00,,,0.00,WSDL version 423,2013-03-04 21:03:00,
2013-03-04 13:08:00,62.2,46.8,30.04,SSW,203,0.0,0.0,57,0.00,,,0.00,WSDL version 423,2013-03-04 21:08:00,
2013-03-04 13:13:00,61.6,46.1,30.04,SSW,203,0.0,0.0,58,0.00,,,0.00,WSDL version 423,2013-03-04 21:13:00,
2013-03-04 13:18:00,-999.0,-99.9,30.04,SSW,203,0.0,0.0,-999,0.00,,,0.00,WSDL version 423,2013-03-04 21:18:00,
2013-03-04 13:23:00,62.3,46.9,30.04,SSW,203,0.0,0.0,56,0.00,,,0.00,WSDL version 423,2013-03-04 21:23:00,
2013-03-04 13:28:00,62.6,46.5,30.03,SSW,203,0.0,0.0,55,0.00,,,0.00,WSDL version 423,2013-03-04 21:28:00,
2013-03-04 13:33:00,62.8,46.5,30.03,SSW,203,0.0,0.0,55,0.00,,,0.00,WSDL version 423,2013-03-04 21:33:00,
2013-03-04 13:38:00,62.9,46.7,30.03,SSW,203,0.0,0.0,56,0.00,,,0.00,WSDL version 423,2013-03-04 21:38:00,
2013-03-04 13:43:00,62.8,46.4,30.02,SSW,203,0.0,0.0,55,0.00,,,0.00,WSDL version 423,2013-03-04 21:43:00,
2013-03-04 13:48:00,62.9,46.0,30.02,SSW,203,0.0,0.0,55,0.00,,,0.00,WSDL version 423,2013-03-04 21:48:00,
2013-03-04 13:53:00,63.1,45.8,30.02,SSW,203,0.0,0.0,53,0.00,,,0.00,WSDL version 423,2013-03-04 21:53:00,
2013-03-04 13:58:00,-999.0,-99.9,30.02,SSW,203,0.0,0.0,-999,0.00,,,0.00,WSDL version 423,2013-03-04 21:58:00,
2013-03-04 14:03:00,63.0,46.1,30.01,SSW,203,0.0,0.0,54,0.00,,,0.00,WSDL version 423,2013-03-04 22:03:00,
2013-03-04 14:08:00,63.2,45.5,30.01,SSW,203,0.0,0.0,53,0.00,,,0.00,WSDL version 423,2013-03-04 22:08:00,
2013-03-04 14:13:00,-999.0,-99.9,30.01,SSW,203,0.0,0.0,-999,0.00,,,0.00,WSDL version 423,2013-03-04 22:13:00,
2013-03-04 14:18:00,-999.0,-99.9,30.01,SSW,203,0.0,0.0,-999,0.00,,,0.00,WSDL version 423,2013-03-04 22:18:00,
2013-03-04 14:23:00,-999.0,-99.9,30.01,SSW,203,0.0,0.0,-999,0.00,,,0.00,WSDL version 423,2013-03-04 22:23:00,
2013-03-04 14:28:00,-999.0,-99.9,30.00,SSW,203,0.0,0.0,-999,0.00,,,0.00,WSDL version 423,2013-03-04 22:28:00,
2013-03-04 14:33:00,-999.0,-99.9,30.00,SSW,203,0.0,0.0,-999,0.00,,,0.00,WSDL version 423,2013-03-04 22:33:00,
2013-03-04 14:38:00,63.6,45.4,30.00,SSW,203,0.0,0.0,52,0.00,,,0.00,WSDL version 423,2013-03-04 22:38:00,
2013-03-04 14:43:00,-999.0,-99.9,30.00,SSW,203,0.0,0.0,-999,0.00,,,0.00,WSDL version 423,2013-03-04 22:43:00,
2013-03-04 14:48:00,63.5,45.6,30.00,SSW,203,0.0,0.0,52,0.00,,,0.00,WSDL version 423,2013-03-04 22:48:00,
2013-03-04 14:53:00,-999.0,-99.9,30.00,SSW,203,0.0,0.0,-999,0.00,,,0.00,WSDL version 423,2013-03-04 22:53:00,
2013-03-04 14:58:00,63.7,45.7,30.00,SSW,203,0.0,0.0,52,0.00,,,0.00,WSDL version 423,2013-03-04 22:58:00,
2013-03-04 15:03:00,-999.0,-99.9,30.00,SSW,203,0.0,0.0,-999,0.00,,,0.00,WSDL version 423,2013-03-04 23:03:00,
2013-03-04 15:08:00,63.9,46.4,30.00,SSW,203,0.0,0.0,53,0.00,,,0.00,WSDL version 423,2013-03-04 23:08:00,
2013-03-04 15:13:00,63.7,46.3,30.00,SSW,203,0.0,0.0,53,0.00,,,0.00,WSDL version 423,2013-03-04 23:13:00,
2013-03-04 15:18:00,-999.0,-99.9,30.00,SSW,203,0.0,0.0,-999,0.00,,,0.00,WSDL version 423,2013-03-04 23:18:00,
2013-03-04 15:23:00,63.9,46.4,30.00,SSW,203,0.0,0.0,53,0.00,,,0.00,WSDL version 423,2013-03-04 23:23:00,
2013-03-04 15:28:00,63.9,46.4,30.00,SSW,203,0.0,0.0,53,0.00,,,0.00,WSDL version 423,2013-03-04 23:28:00,
2013-03-04 15:33:00,-999.0,-99.9,29.99,SSW,203,0.0,0.0,-999,0.00,,,0.00,WSDL version 423,2013-03-04 23:33:00,
2013-03-04 15:43:00,63.7,45.2,29.99,SSW,203,0.0,0.0,51,0.00,,,0.00,WSDL version 423,2013-03-04 23:43:00,
2013-03-04 15:48:00,63.7,44.7,29.99,SSW,203,0.0,0.0,50,0.00,,,0.00,WSDL version 423,2013-03-04 23:48:00,
2013-03-04 15:53:00,63.8,45.3,29.99,SSW,203,0.0,0.0,51,0.00,,,0.00,WSDL version 423,2013-03-04 23:53:00,
2013-03-04 15:58:00,63.9,44.9,29.99,SSW,203,0.0,0.0,50,0.00,,,0.00,WSDL version 423,2013-03-04 23:58:00,
2013-03-04 16:03:00,63.8,44.5,29.99,SSW,203,0.0,0.0,50,0.00,,,0.00,WSDL version 423,2013-03-05 00:03:00,
2013-03-04 16:08:00,63.7,44.8,29.99,SSW,203,0.0,0.0,51,0.00,,,0.00,WSDL version 423,2013-03-05 00:08:00,
2013-03-04 16:13:00,63.7,45.0,29.99,SSW,203,0.0,0.0,51,0.00,,,0.00,WSDL version 423,2013-03-05 00:13:00,
2013-03-04 16:18:00,63.6,45.5,29.99,SSW,203,0.0,0.0,52,0.00,,,0.00,WSDL version 423,2013-03-05 00:18:00,
2013-03-04 16:23:00,63.4,45.5,29.99,SSW,203,0.0,0.0,52,0.00,,,0.00,WSDL version 423,2013-03-05 00:23:00,
2013-03-04 16:28:00,63.2,45.3,29.99,SSW,203,0.0,0.0,52,0.00,,,0.00,WSDL version 423,2013-03-05 00:28:00,
2013-03-04 16:33:00,63.1,45.2,29.99,SSW,203,0.0,0.0,52,0.00,,,0.00,WSDL version 423,2013-03-05 00:33:00,
2013-03-04 16:38:00,63.0,45.1,29.99,SSW,203,0.0,0.0,52,0.00,,,0.00,WSDL version 423,2013-03-05 00:38:00,
2013-03-04 16:43:00,62.8,44.7,29.99,SSW,203,0.0,0.0,52,0.00,,,0.00,WSDL version 423,2013-03-05 00:43:00,
2013-03-04 16:48:00,62.7,44.3,29.99,SSW,203,0.0,0.0,51,0.00,,,0.00,WSDL version 423,2013-03-05 00:48:00,
2013-03-04 16:53:00,62.5,44.4,29.99,SSW,203,0.0,0.0,52,0.00,,,0.00,WSDL version 423,2013-03-05 00:53:00,
2013-03-04 16:58:00,62.2,44.9,30.00,SSW,203,0.0,0.0,53,0.00,,,0.00,WSDL version 423,2013-03-05 00:58:00,
2013-03-04 17:03:00,62.1,44.9,30.00,SSW,203,0.0,0.0,53,0.00,,,0.00,WSDL version 423,2013-03-05 01:03:00,
2013-03-04 17:08:00,-999.0,-99.9,30.00,SSW,203,0.0,0.0,-999,0.00,,,0.00,WSDL version 423,2013-03-05 01:08:00,
2013-03-04 17:13:00,61.5,44.7,30.00,SSW,203,0.0,0.0,54,0.00,,,0.00,WSDL version 423,2013-03-05 01:13:00,
2013-03-04 17:18:00,61.3,45.1,30.00,SSW,203,0.0,0.0,55,0.00,,,0.00,WSDL version 423,2013-03-05 01:18:00,
2013-03-04 17:23:00,-999.0,-99.9,30.00,SSW,203,0.0,0.0,-999,0.00,,,0.00,WSDL version 423,2013-03-05 01:23:00,
2013-03-04 17:28:00,-999.0,-99.9,30.00,SSW,203,0.0,0.0,-999,0.00,,,0.00,WSDL version 423,2013-03-05 01:28:00,
2013-03-04 17:33:00,-999.0,-99.9,30.01,SSW,203,0.0,0.0,-999,0.00,,,0.00,WSDL version 423,2013-03-05 01:33:00,
2013-03-04 17:43:00,-999.0,-99.9,30.00,SSW,203,0.0,0.0,-999,0.00,,,0.00,WSDL version 423,2013-03-05 01:43:00,
2013-03-04 17:48:00,-999.0,-99.9,30.00,SSW,203,0.0,0.0,-999,0.00,,,0.00,WSDL version 423,2013-03-05 01:48:00,
2013-03-04 17:53:00,-999.0,-99.9,30.00,SSW,203,0.0,0.0,-999,0.00,,,0.00,WSDL version 423,2013-03-05 01:53:00,
2013-03-04 18:03:00,-999.0,-99.9,30.00,SSW,203,0.0,0.0,-999,0.00,,,0.00,WSDL version 423,2013-03-05 02:03:00,
2013-03-04 18:08:00,-999.0,-99.9,30.00,SSW,203,0.0,0.0,-999,0.00,,,0.00,WSDL version 423,2013-03-05 02:08:00,
2013-03-04 18:13:00,-999.0,-99.9,30.00,SSW,203,0.0,0.0,-999,0.00,,,0.00,WSDL version 423,2013-03-05 02:13:00,
2013-03-04 18:18:00,-999.0,-99.9,30.00,SSW,203,0.0,0.0,-999,0.00,,,0.00,WSDL version 423,2013-03-05 02:18:00,
2013-03-04 18:23:00,-999.0,-99.9,30.01,SSW,203,0.0,0.0,-999,0.00,,,0.00,WSDL version 423,2013-03-05 02:23:00,
2013-03-04 18:28:00,-999.0,-99.9,30.01,SSW,203,0.0,0.0,-999,0.00,,,0.00,WSDL version 423,2013-03-05 02:28:00,
2013-03-04 18:38:00,-999.0,-99.9,30.01,SSW,203,0.0,0.0,-999,0.00,,,0.00,WSDL version 423,2013-03-05 02:38:00,
2013-03-04 18:43:00,-999.0,-99.9,30.01,SSW,203,0.0,0.0,-999,0.00,,,0.00,WSDL version 423,2013-03-05 02:43:00,
2013-03-04 18:53:00,-999.0,-99.9,30.01,SSW,203,0.0,0.0,-999,0.00,,,0.00,WSDL version 423,2013-03-05 02:53:00,
2013-03-04 19:03:00,-999.0,-99.9,30.01,SSW,203,0.0,0.0,-999,0.00,,,0.00,WSDL version 423,2013-03-05 03:03:00,
2013-03-04 19:08:00,-999.0,-99.9,30.01,SSW,203,0.0,0.0,-999,0.00,,,0.00,WSDL version 423,2013-03-05 03:08:00,
2013-03-04 19:13:00,-999.0,-99.9,30.00,SSW,203,0.0,0.0,-999,0.00,,,0.00,WSDL version 423,2013-03-05 03:13:00,
2013-03-04 19:18:00,-999.0,-99.9,30.01,SSW,203,0.0,0.0,-999,0.00,,,0.00,WSDL version 423,2013-03-05 03:18:00,
2013-03-04 19:23:00,-999.0,-99.9,30.01,SSW,203,0.0,0.0,-999,0.00,,,0.00,WSDL version 423,2013-03-05 03:23:00,
2013-03-04 19:28:00,-999.0,-99.9,30.01,SSW,203,0.0,0.0,-999,0.00,,,0.00,WSDL version 423,2013-03-05 03:28:00,
2013-03-04 19:33:00,-999.0,-99.9,30.01,SSW,203,0.0,0.0,-999,0.00,,,0.00,WSDL version 423,2013-03-05 03:33:00,
2013-03-04 19:38:00,-999.0,-99.9,30.01,SSW,203,0.0,0.0,-999,0.00,,,0.00,WSDL version 423,2013-03-05 03:38:00,
2013-03-04 19:48:00,-999.0,-99.9,30.01,SSW,203,0.0,0.0,-999,0.00,,,0.00,WSDL version 423,2013-03-05 03:48:00,
2013-03-04 19:53:00,-999.0,-99.9,30.01,SSW,203,0.0,0.0,-999,0.00,,,0.00,WSDL version 423,2013-03-05 03:53:00,
2013-03-04 19:58:00,-999.0,-99.9,30.01,SSW,203,0.0,0.0,-999,0.00,,,0.00,WSDL version 423,2013-03-05 03:58:00,
2013-03-04 20:03:00,-999.0,-99.9,30.01,SSW,203,0.0,0.0,-999,0.00,,,0.00,WSDL version 423,2013-03-05 04:03:00,
2013-03-04 20:08:00,-999.0,-99.9,30.01,SSW,203,0.0,0.0,-999,0.00,,,0.00,WSDL version 423,2013-03-05 04:08:00,
2013-03-04 20:13:00,-999.0,-99.9,30.01,SSW,203,0.0,0.0,-999,0.00,,,0.00,WSDL version 423,2013-03-05 04:13:00,
2013-03-04 20:18:00,-999.0,-99.9,30.01,SSW,203,0.0,0.0,-999,0.00,,,0.00,WSDL version 423,2013-03-05 04:18:00,
2013-03-04 20:28:00,-999.0,-99.9,30.01,SSW,203,0.0,0.0,-999,0.00,,,0.00,WSDL version 423,2013-03-05 04:28:00,
2013-03-04 20:38:00,-999.0,-99.9,30.01,SSW,203,0.0,0.0,-999,0.00,,,0.00,WSDL version 423,2013-03-05 04:38:00,
2013-03-04 20:43:00,50.0,43.1,30.01,SSW,203,0.0,0.0,77,0.00,,,0.00,WSDL version 423,2013-03-05 04:43:00,
2013-03-04 20:48:00,-999.0,-99.9,30.01,SSW,203,0.0,0.0,-999,0.00,,,0.00,WSDL version 423,2013-03-05 04:48:00,
2013-03-04 20:53:00,-999.0,-99.9,30.01,SSW,203,0.0,0.0,-999,0.00,,,0.00,WSDL version 423,2013-03-05 04:53:00,
2013-03-04 21:03:00,-999.0,-99.9,30.02,SSW,203,0.0,0.0,-999,0.00,,,0.00,WSDL version 423,2013-03-05 05:03:00,
2013-03-04 21:08:00,-999.0,-99.9,30.02,SSW,203,0.0,0.0,-999,0.00,,,0.00,WSDL version 423,2013-03-05 05:08:00,
2013-03-04 21:13:00,-999.0,-99.9,30.02,SSW,203,0.0,0.0,-999,0.00,,,0.00,WSDL version 423,2013-03-05 05:13:00,
2013-03-04 21:18:00,-999.0,-99.9,30.02,SSW,203,0.0,0.0,-999,0.00,,,0.00,WSDL version 423,2013-03-05 05:18:00,
2013-03-04 21:23:00,-999.0,-99.9,30.02,SSW,203,0.0,0.0,-999,0.00,,,0.00,WSDL version 423,2013-03-05 05:23:00,
2013-03-04 21:28:00,-999.0,-99.9,30.02,SSW,203,0.0,0.0,-999,0.00,,,0.00,WSDL version 423,2013-03-05 05:28:00,
2013-03-04 21:33:00,-999.0,-99.9,30.02,SSW,203,0.0,0.0,-999,0.00,,,0.00,WSDL version 423,2013-03-05 05:33:00,
2013-03-04 21:38:00,49.3,44.1,30.01,SSW,203,0.0,0.0,82,0.00,,,0.00,WSDL version 423,2013-03-05 05:38:00,
2013-03-04 21:43:00,-999.0,-99.9,30.01,SSW,203,0.0,0.0,-999,0.00,,,0.00,WSDL version 423,2013-03-05 05:43:00,
2013-03-04 21:48:00,-999.0,-99.9,30.01,SSW,203,0.0,0.0,-999,0.00,,,0.00,WSDL version 423,2013-03-05 05:48:00,
2013-03-04 21:53:00,-999.0,-99.9,30.01,SSW,203,0.0,0.0,-999,0.00,,,0.00,WSDL version 423,2013-03-05 05:53:00,
2013-03-04 21:58:00,-999.0,-99.9,30.01,SSW,203,0.0,0.0,-999,0.00,,,0.00,WSDL version 423,2013-03-05 05:58:00,
2013-03-04 22:03:00,-999.0,-99.9,30.01,SSW,203,0.0,0.0,-999,0.00,,,0.00,WSDL version 423,2013-03-05 06:03:00,
2013-03-04 22:08:00,-999.0,-99.9,30.00,SSW,203,0.0,0.0,-999,0.00,,,0.00,WSDL version 423,2013-03-05 06:08:00,
2013-03-04 22:13:00,49.1,44.3,30.00,SSW,203,0.0,0.0,83,0.00,,,0.00,WSDL version 423,2013-03-05 06:13:00,
2013-03-04 22:18:00,-999.0,-99.9,30.00,SSW,203,0.0,0.0,-999,0.00,,,0.00,WSDL version 423,2013-03-05 06:18:00,
2013-03-04 22:23:00,-999.0,-99.9,30.00,SSW,203,0.0,0.0,-999,0.00,,,0.00,WSDL version 423,2013-03-05 06:23:00,
2013-03-04 22:28:00,-999.0,-99.9,30.00,SSW,203,0.0,0.0,-999,0.00,,,0.00,WSDL version 423,2013-03-05 06:28:00,
2013-03-04 22:33:00,-999.0,-99.9,30.00,SSW,203,0.0,0.0,-999,0.00,,,0.00,WSDL version 423,2013-03-05 06:33:00,
2013-03-04 22:38:00,49.1,44.3,30.00,SSW,203,0.0,0.0,83,0.00,,,0.00,WSDL version 423,2013-03-05 06:38:00,
2013-03-04 22:43:00,-999.0,-99.9,30.00,SSW,203,0.0,0.0,-999,0.00,,,0.00,WSDL version 423,2013-03-05 06:43:00,
2013-03-04 22:48:00,-999.0,-99.9,30.00,SSW,203,0.0,0.0,-999,0.00,,,0.00,WSDL version 423,2013-03-05 06:48:00,
2013-03-04 22:53:00,-999.0,-99.9,30.00,SSW,203,0.0,0.0,-999,0.00,,,0.00,WSDL version 423,2013-03-05 06:53:00,
2013-03-04 22:58:00,-999.0,-99.9,30.00,SSW,203,0.0,0.0,-999,0.00,,,0.00,WSDL version 423,2013-03-05 06:58:00,
2013-03-04 23:03:00,-999.0,-99.9,30.00,SSW,203,0.0,0.0,-999,0.00,,,0.00,WSDL version 423,2013-03-05 07:03:00,
2013-03-04 23:08:00,-999.0,-99.9,30.00,SSW,203,0.0,0.0,-999,0.00,,,0.00,WSDL version 423,2013-03-05 07:08:00,
2013-03-04 23:13:00,-999.0,-99.9,30.00,SSW,203,0.0,0.0,-999,0.00,,,0.00,WSDL version 423,2013-03-05 07:13:00,
2013-03-04 23:18:00,47.5,42.5,30.00,SSW,203,0.0,0.0,83,0.00,,,0.00,WSDL version 423,2013-03-05 07:18:00,
2013-03-04 23:23:00,-999.0,-99.9,30.00,SSW,203,0.0,0.0,-999,0.00,,,0.00,WSDL version 423,2013-03-05 07:23:00,
2013-03-04 23:28:00,-999.0,-99.9,30.00,SSW,203,0.0,0.0,-999,0.00,,,0.00,WSDL version 423,2013-03-05 07:28:00,
2013-03-04 23:33:00,-999.0,-99.9,30.00,SSW,203,0.0,0.0,-999,0.00,,,0.00,WSDL version 423,2013-03-05 07:33:00,
2013-03-04 23:38:00,-999.0,-99.9,30.00,SSW,203,0.0,0.0,-999,0.00,,,0.00,WSDL version 423,2013-03-05 07:38:00,
2013-03-04 23:43:00,46.9,42.2,30.00,SSW,203,0.0,0.0,83,0.00,,,0.00,WSDL version 423,2013-03-05 07:43:00,
2013-03-04 23:48:00,-999.0,-99.9,30.00,SSW,203,0.0,0.0,-999,0.00,,,0.00,WSDL version 423,2013-03-05 07:48:00,
2013-03-04 23:53:00,-999.0,-99.9,30.00,SSW,203,0.0,0.0,-999,0.00,,,0.00,WSDL version 423,2013-03-05 07:53:00,
2013-03-04 23:58:00,47.3,43.7,30.00,SSW,203,0.0,0.0,87,0.00,,,0.00,WSDL version 423,2013-03-05 07:58:00,